Tracking 19794 objects as of 21-Jul-2019
HD Live streaming from Space Station
objects crossing your sky now

MARECS B2

Track MARECS B2 now!
MARECS B2 is classified as:


NORAD ID: 15386
Int'l Code: 1984-114B
Perigee: 36,549.0 km
Apogee: 37,564.7 km
Inclination: 16.2 °
Period: 1,501.1 minutes
Semi major axis: 43427 km
RCS: 3.0552 m2 (large)
Launch date: November 10, 1984
Source: European Space Agency (ESA)
Launch site: FRENCH GUIANA (FRGUI)
aabbcc
Your satellite tracking list
Your tracking list is empty




NASA's NSSDC Master Catalog

Two Line Element Set (TLE):
1 15386U 84114B   19201.71768243 -.00000257  00000-0  00000+0 0  9996
2 15386  16.2343 352.3657 0116942 352.3725  11.0814  0.95929253 88459
Source of the keplerian elements: AFSPC